EW7402 Weather Reports


time (UTC)temp
C
wind
direction
speed
KPH
gust
KPH
rain 1hr
cm
rain 24hr
cm
rain mn
cm
humidity
%
barometer
mb
20260502231638 13 26 3.2 6.4 0.00 0.00 0.00 81 1012.9
20260502231138 13 0 1.6 4.8 0.00 0.00 0.00 81 1012.9
20260502230638 13 0 1.6 8.0 0.00 0.00 0.00 81 1012.8
20260502230137 13 48 1.6 8.0 0.00 0.00 0.00 81 1012.8
20260502225638 13 48 1.6 6.4 0.00 0.00 0.00 81 1012.9
20260502225140 13 68 1.6 6.4 0.00 0.00 0.00 80 1013.0
20260502224637 13 46 1.6 6.4 0.00 0.00 0.00 80 1013.0
20260502224139 13 71 1.6 8.0 0.00 0.00 0.00 80 1013.1
20260502223908 13 71 1.6 8.0 0.00 0.00 0.00 80 1013.1
20260502223410 13 39 1.6 6.4 0.00 0.00 0.00 80 1013.3
20260502222651 13 55 3.2 6.4 0.00 0.00 0.00 80 1013.2
20260502222136 13 73 1.6 6.4 0.00 0.00 0.00 80 1013.4
20260502221637 13 93 1.6 4.8 0.00 0.00 0.00 79 1013.6
20260502221139 13 93 1.6 4.8 0.00 0.00 0.00 79 1013.5
20260502220916 13 93 3.2 9.7 0.00 0.00 0.00 79 1013.4
20260502215628 13 85 3.2 9.7 0.00 0.00 0.00 80 1013.3
20260502215124 13 0 1.6 8.0 0.00 0.00 0.00 80 1013.2
20260502214618 13 65 3.2 8.0 0.00 0.00 0.00 80 1013.2
20260502214111 13 85 1.6 8.0 0.00 0.00 0.00 80 1013.3
20260502213607 13 59 3.2 8.0 0.00 0.00 0.00 79 1013.3
20260502213059 13 40 3.2 8.0 0.00 0.00 0.00 79 1013.4
20260502212606 13 78 1.6 6.4 0.00 0.00 0.00 79 1013.5
20260502212048 13 78 1.6 4.8 0.00 0.00 0.00 79 1013.6
20260502211542 13 78 1.6 4.8 0.00 0.00 0.00 79 1013.7
20260502211036 13 78 1.6 4.8 0.00 0.00 0.00 79 1013.7
20260502210529 14 77 1.6 4.8 0.00 0.00 0.00 78 1013.7
20260502210026 14 78 1.6 4.8 0.00 0.00 0.00 78 1013.6
20260502205516 14 82 1.6 4.8 0.00 0.00 0.00 78 1013.6
20260502205014 14 70 1.6 4.8 0.00 0.00 0.00 77 1013.6
20260502203959 14 53 4.8 12.9 0.00 0.00 0.00 76 1013.6
20260502203726 14 26 4.8 9.7 0.00 0.00 0.00 76 1013.7
20260502202948 14 0 4.8 9.7 0.00 0.00 0.00 75 1013.7
20260502202443 15 350 4.8 12.9 0.00 0.00 0.00 75 1013.8
20260502201935 15 351 4.8 12.9 0.00 0.00 0.00 74 1013.9
20260502201701 15 33 3.2 9.7 0.00 0.00 0.00 74 1013.9
20260502200923 15 59 4.8 9.7 0.00 0.00 0.00 74 1014.1
20260502200418 15 347 4.8 9.7 0.00 0.00 0.00 73 1014.1
20260502195911 15 341 3.2 6.4 0.00 0.00 0.00 73 1014.2
20260502195404 15 351 3.2 8.0 0.00 0.00 0.00 72 1014.3
20260502194900 15 26 3.2 8.0 0.00 0.00 0.00 72 1014.2
20260502194353 15 74 3.2 12.9 0.00 0.00 0.00 72 1014.2
20260502193848 16 355 4.8 12.9 0.00 0.00 0.00 71 1014.1
20260502192834 16 335 3.2 8.0 0.00 0.00 0.00 71 1014.1
20260502192330 16 24 3.2 8.0 0.00 0.00 0.00 71 1014.1
20260502191824 16 24 3.2 8.0 0.00 0.00 0.00 70 1014.1
20260502191318 16 24 3.2 8.0 0.00 0.00 0.00 70 1014.1
20260502190812 17 347 3.2 8.0 0.00 0.00 0.00 69 1014.2
20260502190306 17 0 3.2 9.7 0.00 0.00 0.00 68 1014.0
20260502185758 17 24 3.2 9.7 0.00 0.00 0.00 67 1014.0
20260502185525 17 24 4.8 9.7 0.00 0.00 0.00 67 1014.0
20260502184755 17 25 4.8 14.5 0.00 0.00 0.00 67 1013.9
20260502184528 17 32 4.8 14.5 0.00 0.00 0.00 66 1014.0
20260502183753 18 351 6.4 14.5 0.00 0.00 0.00 66 1013.9
20260502183253 18 300 4.8 14.5 0.00 0.00 0.00 66 1014.0
20260502183026 18 342 3.2 8.0 0.00 0.00 0.00 66 1014.0
20260502182253 18 336 3.2 12.9 0.00 0.00 0.00 66 1014.0
20260502181750 18 300 4.8 16.1 0.00 0.00 0.00 65 1014.0
20260502181257 18 325 4.8 16.1 0.00 0.00 0.00 65 1013.9
20260502180249 19 298 4.8 14.5 0.00 0.00 0.00 66 1014.0
20260502170516 20 304 8.0 17.7 0.00 0.00 0.00 67 1014.4
20260502164243 21 254 9.7 17.7 0.00 0.00 0.00 68 1014.6
20260502163746 21 355 9.7 17.7 0.00 0.00 0.00 68 1014.6
20260502163509 21 277 9.7 19.3 0.00 0.00 0.00 68 1014.7
20260502162740 21 296 9.7 19.3 0.00 0.00 0.00 68 1014.8
20260502162238 21 280 8.0 17.7 0.00 0.00 0.00 67 1014.8
20260502161738 22 266 8.0 20.9 0.00 0.00 0.00 67 1014.7
20260502161512 22 293 9.7 20.9 0.00 0.00 0.00 66 1014.8
20260502160738 22 262 11.3 19.3 0.00 0.00 0.00 65 1014.8
20260502160240 22 334 11.3 19.3 0.00 0.00 0.00 64 1014.8
20260502152236 22 210 8.0 17.7 0.00 0.00 0.00 63 1015.1
20260502152009 22 230 9.7 19.3 0.00 0.00 0.00 63 1015.1
20260502151236 22 259 9.7 19.3 0.00 0.00 0.00 63 1015.2
20260502150737 22 281 8.0 17.7 0.00 0.00 0.00 63 1015.2
20260502150508 22 255 6.4 16.1 0.00 0.00 0.00 62 1015.4
20260502130653 23 191 6.4 14.5 0.00 0.00 0.00 60 1016.2
20260502130146 22 190 6.4 14.5 0.00 0.00 0.00 61 1016.2
20260502123616 21 293 8.0 16.1 0.00 0.00 0.00 63 1016.4
20260502123111 21 256 8.0 19.3 0.00 0.00 0.00 62 1016.5
20260502122603 21 233 9.7 19.3 0.00 0.00 0.00 62 1016.5
20260502122059 21 256 9.7 22.5 0.00 0.00 0.00 62 1016.5
20260502121555 21 265 9.7 22.5 0.00 0.00 0.00 62 1016.5
20260502121047 21 282 9.7 17.7 0.00 0.00 0.00 62 1016.5
20260502120541 21 269 11.3 17.7 0.00 0.00 0.00 64 1016.6
20260502115529 21 236 8.0 16.1 0.00 0.00 0.00 62 1016.5
20260502115025 21 268 9.7 17.7 0.00 0.00 0.00 62 1016.6
20260502114516 21 285 11.3 20.9 0.00 0.00 0.00 61 1016.6
20260502114011 21 281 11.3 20.9 0.00 0.00 0.00 60 1016.7
20260502113504 22 281 9.7 17.7 0.00 0.00 0.00 60 1016.7
20260502113000 21 285 9.7 24.1 0.00 0.00 0.00 60 1016.8
20260502112722 21 242 9.7 24.1 0.00 0.00 0.00 58 1016.8
20260502111946 21 177 9.7 16.1 0.00 0.00 0.00 55 1016.8
20260502111441 21 206 8.0 17.7 0.00 0.00 0.00 54 1016.7
20260502110936 21 237 8.0 17.7 0.00 0.00 0.00 54 1016.7
20260502110429 21 187 6.4 16.1 0.00 0.00 0.00 56 1016.8
20260502105922 21 194 6.4 14.5 0.00 0.00 0.00 58 1016.8
20260502105416 21 186 6.4 14.5 0.00 0.00 0.00 58 1016.9
20260502105144 20 225 6.4 11.3 0.00 0.00 0.00 60 1016.8
20260502104405 20 202 4.8 9.7 0.00 0.00 0.00 59 1016.8
20260502103354 19 204 4.8 9.7 0.00 0.00 0.00 61 1016.9
20260502102859 19 185 4.8 9.7 0.00 0.00 0.00 60 1016.9
20260502101617 18 203 3.2 8.0 0.00 0.00 0.00 59 1017.0
20260502100841 18 195 3.2 8.0 0.00 0.00 0.00 61 1017.1
20260502100615 18 214 4.8 9.7 0.00 0.00 0.00 59 1017.1
20260502091334 17 192 4.8 12.9 0.00 0.00 0.00 63 1017.4
20260502090830 17 171 6.4 14.5 0.00 0.00 0.00 61 1017.5
20260502090330 17 178 6.4 14.5 0.00 0.00 0.00 59 1017.7
20260502071321 15 184 6.4 12.9 0.00 0.00 0.00 64 1017.8
20260502070821 15 187 6.4 12.9 0.00 0.00 0.00 64 1018.0
20260502070331 15 186 8.0 14.5 0.00 0.00 0.00 64 1017.8
20260502065320 15 163 6.4 14.5 0.00 0.00 0.00 64 1017.7
20260502064822 15 180 6.4 14.5 0.00 0.00 0.00 64 1017.5
20260502064321 14 174 8.0 12.9 0.00 0.00 0.00 65 1017.6
20260502063820 14 142 8.0 12.9 0.00 0.00 0.00 66 1017.6
20260502063319 14 169 8.0 12.9 0.00 0.00 0.00 67 1017.6
20260502062818 13 167 6.4 12.9 0.00 0.00 0.00 67 1017.6
20260502061807 13 178 8.0 14.5 0.00 0.00 0.00 68 1017.6
20260502061302 12 177 6.4 14.5 0.00 0.00 0.00 68 1017.5
20260502060756 12 205 4.8 11.3 0.00 0.00 0.00 71 1017.5
20260502060256 12 189 4.8 11.3 0.00 0.00 0.00 72 1017.6
20260502060027 11 172 4.8 11.3 0.00 0.00 0.00 71 1017.4
20260502055254 11 182 4.8 9.7 0.00 0.00 0.00 71 1017.4
20260502054755 11 173 4.8 9.7 0.00 0.00 0.00 71 1017.4
20260502054252 11 174 4.8 8.0 0.00 0.00 0.00 71 1017.5
20260502053751 11 188 3.2 8.0 0.00 0.00 0.00 71 1017.5
20260502053253 10 175 4.8 12.9 0.00 0.00 0.00 72 1017.5
20260502052753 10 190 6.4 12.9 0.00 0.00 0.00 72 1017.5
20260502052250 10 173 4.8 9.7 0.00 0.00 0.00 72 1017.6
20260502051750 10 203 3.2 8.0 0.00 0.00 0.00 72 1017.6
20260502051247 10 183 4.8 8.0 0.00 0.00 0.00 72 1017.7
20260502051020 10 170 6.4 12.9 0.00 0.00 0.00 72 1017.6
20260502050249 9 186 8.0 12.9 0.00 0.00 0.00 72 1017.6
20260502050020 9 167 6.4 12.9 0.00 0.00 0.00 72 1017.7
20260502045520 9 167 6.4 9.7 0.00 0.00 0.00 72 1017.6
20260502045021 9 146 4.8 11.3 0.00 0.00 0.00 72 1017.7
20260502044248 9 147 6.4 11.3 0.00 0.00 0.00 72 1017.6
20260502044012 9 150 4.8 11.3 0.00 0.00 0.00 72 1017.5
20260502043509 9 132 4.8 11.3 0.00 0.00 0.00 72 1017.5
20260502043001 9 140 6.4 11.3 0.00 0.00 0.00 72 1017.7
20260502042224 9 151 6.4 11.3 0.00 0.00 0.00 71 1017.6
20260502041720 9 132 4.8 11.3 0.00 0.00 0.00 71 1017.6
20260502041211 9 134 4.8 11.3 0.00 0.00 0.00 71 1017.7
20260502040706 9 142 4.8 11.3 0.00 0.00 0.00 71 1017.6
20260502040201 9 138 4.8 11.3 0.00 0.00 0.00 71 1017.7
20260502035654 9 139 4.8 11.3 0.00 0.00 0.00 71 1017.8
20260502035148 9 118 4.8 11.3 0.00 0.00 0.00 71 1017.8
20260502034642 9 130 6.4 11.3 0.00 0.00 0.00 71 1018.0
20260502034134 9 149 4.8 11.3 0.00 0.00 0.00 72 1018.0
20260502033630 9 137 4.8 9.7 0.00 0.00 0.00 71 1018.0
20260502033122 9 146 4.8 9.7 0.00 0.00 0.00 71 1018.1
20260502032618 9 142 4.8 9.7 0.00 0.00 0.00 71 1018.1
20260502032111 9 127 4.8 9.7 0.00 0.00 0.00 71 1018.0
20260502031606 9 134 4.8 8.0 0.00 0.00 0.00 71 1018.1
20260502031333 9 138 4.8 8.0 0.00 0.00 0.00 71 1018.1
20260502030554 9 130 4.8 6.4 0.00 0.00 0.00 71 1018.2
20260502030100 9 123 4.8 6.4 0.00 0.00 0.00 71 1018.2
20260502025818 9 143 4.8 9.7 0.00 0.00 0.00 71 1018.3
20260502025037 9 137 4.8 9.7 0.00 0.00 0.00 70 1018.2
20260502024530 9 148 6.4 9.7 0.00 0.00 0.00 70 1018.3
20260502024023 9 140 4.8 9.7 0.00 0.00 0.00 70 1018.3
20260502023519 9 145 4.8 9.7 0.00 0.00 0.00 70 1018.3
20260502023012 9 137 4.8 9.7 0.00 0.00 0.00 69 1018.4
20260502022508 9 150 4.8 9.7 0.00 0.00 0.00 69 1018.4
20260502022008 10 149 4.8 9.7 0.00 0.00 0.00 69 1018.5
20260502021507 10 138 4.8 8.0 0.00 0.00 0.00 69 1018.5
20260502021009 10 157 4.8 8.0 0.00 0.00 0.00 69 1018.6
20260502020740 10 140 4.8 8.0 0.00 0.00 0.00 68 1018.6
20260502020009 10 140 4.8 8.0 0.00 0.00 0.00 68 1018.7
20260502015507 10 142 4.8 8.0 0.00 0.00 0.00 68 1018.7
20260502015005 10 138 4.8 8.0 0.00 0.00 0.00 67 1018.6
20260502014505 10 141 3.2 6.4 0.00 0.00 0.00 67 1018.7
20260502014006 10 140 3.2 6.4 0.00 0.00 0.00 67 1018.7
20260502013508 10 139 3.2 4.8 0.00 0.00 0.00 67 1018.7
20260502013006 10 138 3.2 4.8 0.00 0.00 0.00 67 1018.8
20260502012505 10 136 3.2 6.4 0.00 0.00 0.00 67 1018.8
20260502012006 10 136 3.2 6.4 0.00 0.00 0.00 66 1018.9
20260502011504 11 138 3.2 6.4 0.00 0.00 0.00 66 1018.9
20260502011236 11 140 3.2 6.4 0.00 0.00 0.00 65 1019.0
20260502010502 11 140 3.2 4.8 0.00 0.00 0.00 65 1019.2
20260502010002 11 138 3.2 4.8 0.00 0.00 0.00 65 1019.2
20260502005456 11 139 3.2 4.8 0.00 0.00 0.00 64 1019.2
20260502004950 11 140 3.2 4.8 0.00 0.00 0.00 65 1019.3
20260502004446 11 136 4.8 6.4 0.00 0.00 0.00 65 1019.2
20260502004213 11 136 4.8 6.4 0.00 0.00 0.00 64 1019.3
20260502003443 11 138 4.8 6.4 0.00 0.00 0.00 64 1019.3
20260502002943 11 138 3.2 6.4 0.00 0.00 0.00 64 1019.4
20260502002716 11 139 3.2 6.4 0.00 0.00 0.00 64 1019.5
20260502002215 11 137 3.2 4.8 0.00 0.00 0.00 64 1019.6
20260502001442 11 121 3.2 4.8 0.00 0.00 0.00 63 1019.6
20260502000943 12 141 3.2 4.8 0.00 0.00 0.00 63 1019.7
20260502000440 12 147 3.2 6.4 0.00 0.00 0.00 63 1019.6
20260501235941 12 134 3.2 6.4 0.00 0.00 0.00 62 1019.6
20260501235440 12 134 3.2 6.4 0.00 0.00 0.00 62 1019.7
20260501234943 12 133 3.2 6.4 0.00 0.00 0.00 62 1019.7
20260501234440 12 133 3.2 6.4 0.00 0.00 0.00 61 1019.7
20260501234219 12 133 3.2 8.0 0.00 0.00 0.00 61 1019.7
20260501233440 12 145 4.8 8.0 0.00 0.00 0.00 61 1019.7
20260501233213 12 141 4.8 8.0 0.00 0.00 0.00 61 1019.8
20260501232442 12 132 4.8 6.4 0.00 0.00 0.00 61 1019.8